Regional Weather Roundup
Issued by NWS

Home | Current Version | Previous Version | Text Only | Print | Product List | Glossary On
Versions: 1 2 3 4 5 6 7 8 9 10 11 12 13 14 15 16 17 18 19 20 21 22 23 24 25 26 27 28 29 30 31 32 33 34 35 36 37 38 39 40 41 42 43 44 45 46 47 48 49 50
000
ASUS45 KCYS 290010
RWRWY

WYOMING REGIONAL WEATHER ROUNDUP
NATIONAL WEATHER SERVICE CHEYENNE WY
600 PM MDT SAT MAR 28 2015

NOTE:  "FAIR" INDICATES FEW OR NO CLOUDS BELOW 12,000 FEET
WITH NO SIGNIFICANT WEATHER AND/OR OBSTRUCTIONS TO VISIBILITY.

WYZ001-290100-
YELLOWSTONE NATIONAL PARK

CITY           SKY/WX    TMP DP  RH WIND       PRES   REMARKS
LK YELLOWSTONE   N/A     44  11  26 W16G30    30.07R
6HR MIN TEMP:  43; 6HR MAX TEMP:  49; 6HR PCP:  0.01;

W YELLOWSTONE  NOT AVBL

$$
WYZ002>013-054>058-071-098>099-290100-
NORTHERN WYOMING

CITY           SKY/WX    TMP DP  RH WIND       PRES   REMARKS
JACKSON        SUNNY     48  25  40 S16G23    30.09R
CODY           FAIR      54  36  50 W14G23    29.91S
GREYBULL       FAIR      66  29  24 W36G51    29.78R
6HR MIN TEMP:  66; 6HR MAX TEMP:  80;

WORLAND        FAIR      71  21  15 NW26G36   29.79R
6HR MIN TEMP:  71; 6HR MAX TEMP:  80;

SHERIDAN       CLOUDY    58  33  39 NW32G48   29.80R
6HR MIN TEMP:  58; 6HR MAX TEMP:  80;

BUFFALO        CLOUDY    57  34  41 N32G45    29.80R HAZE
6HR MIN TEMP:  57; 6HR MAX TEMP:  77;

GILLETTE       PTSUNNY   61  33  35 NW29G49   29.74R
6HR MIN TEMP:  61; 6HR MAX TEMP:  77;

HULETT         MOCLDY    66  32  28 NW20G41   29.69R
NEWCASTLE      FAIR      75  19  12 W28G40    29.65F

$$
WYZ014>020-022>026-101>103-290100-
CENTRAL WYOMING

CITY           SKY/WX    TMP DP  RH WIND       PRES   REMARKS
BIG PINEY      FAIR      58  17  20 W21G32    30.10S
6HR MIN TEMP:  58; 6HR MAX TEMP:  64;

PINEDALE       FAIR      52  23  32 NW25G36   30.12R
DUBOIS         FAIR      50  21  32 W25G37    30.01R
LANDER         FAIR      65  11  12 W36G45    29.89S
6HR MIN TEMP:  65; 6HR MAX TEMP:  73;

RIVERTON       FAIR      66  14  13 W30G38    29.91R
6HR MIN TEMP:  63; 6HR MAX TEMP:  74;

CASPER         FAIR      69  19  15 W30G45    29.82R
6HR MIN TEMP:  69; 6HR MAX TEMP:  75;

DOUGLAS        FAIR      73  19  13 W37G55    29.76F
6HR MIN TEMP:  72; 6HR MAX TEMP:  78;


$$
WYZ021-027>030-104>119-290100-
SOUTHERN WYOMING

CITY           SKY/WX    TMP DP  RH WIND       PRES   REMARKS
EVANSTON       FAIR      57  19  22 W25G32    30.18S
6HR MIN TEMP:  57; 6HR MAX TEMP:  64;

KEMMERER       FAIR      55  21  26 W26G36    30.18R
FORT BRIDGER   FAIR      62  13  15 W24G32    30.20R
ROCK SPRINGS   FAIR      62   8  12 W32G41    30.09R
6HR MIN TEMP:  62; 6HR MAX TEMP:  70;

DIXON          FAIR      66  22  19 W17       30.06S
RAWLINS        FAIR      65  18  16 W38G54    29.98F
6HR MIN TEMP:  64; 6HR MAX TEMP:  71;

SARATOGA       FAIR      64  16  15 W32G40    30.02S
LARAMIE        FAIR      61  27  27 W25G46    30.02R
6HR MIN TEMP:  59; 6HR MAX TEMP:  67;

CHEYENNE       FAIR      70  21  15 W20G32    29.94S
6HR MIN TEMP:  69; 6HR MAX TEMP:  75;

TORRINGTON     FAIR      80  18  10 W23G39    29.74F
6HR MIN TEMP:  74; 6HR MAX TEMP:  82;

PINE BLUFFS    FAIR      73  19  13 W17G29    29.88F

$$



USA.gov is the U.S. government's official web portal to all federal, state and local government web resources and services.